Airfield :
LOGIN :

Register | Disclaimer

   EN    FR    IT 

 










Legend :    VFR   Marginal VFR   IFR   Intensive IFR   Very Intensive IFR
Visi :
Ceiling :
>= 8 km
>= 3000ft
5 to 8 km
1000 to 3000 ft
1500m to 5 km
500 to 1000 ft
800 to 1500m
200 to 500 ft
< 800m
< 200 ft
Symbols :   Thunderstorms  Fog  Heavy snow  Heavy precipitations  Wind > 20 kt
SIGMETs :     Misc.  Thunderstorms  Icing  Turbulence  Mountain Waves  Volcanic Ashes







- Airport Elevation : 505 ft
- IATA code : SXB
- Download approach charts


LFST - Strasbourg

EXPIRED METARs :
  • 201300Z AUTO 02010KT 9999 SCT046 BKN080 22/12 Q1024 NOSIG
  • 201230Z AUTO 35005KT 270V060 9999 FEW040 22/12 Q1024 NOSIG

TAF TAF LFST
Valid from the 20 at 12:00 until the 21 at 12:00 UTC


201100Z 2012/2112 35008KT 9999 FEW040
BECMG 2019/2021 VRB03KT
No reported NOTAMs for that airfield.



MET'MAP, your aeronautical weather chart ! - Copyright ORBIFLY December 2007 - Disclaimer

ORBIFLY MET'MAP TEAM :

Programming & Development : Alexandra Zaïnal
Concept & Development : Baudouin d'Aumeries
Co-Development & Prog : Marc-Olivier Méhu
Technical & hardware support : Manuel Goepfert

Contact : metmap@orbifly.com




SOURCES & CREDITS :

   NOAA